SCP
2 3 3 3 3 4 4 4 3 2 2 2 2 2 2 3 2 2 1 1 0 0 0 0 0 0 1 0 0 0 0 0 0 0 0 0 0 0 0 0 0 0 0
3 3 3 3 3 4 5 4 3 3 2 2 2 2 2 2 2 2 1 1 0 0 0 0 0 0 1 0 0 0 1 1 1 1 0 0 0 0 0 0 0 0 0
3 3 3 3 3 4 5 4 3 3 2 2 2 2 2 1 1 1 1 1 1 0 0 0 1 1 0 0 0 1 1 1 1 1 1 0 1 1 1 1 1 1 1
3 3 3 3 3 4 4 3 2 2 2 2 2 2 2 1 1 1 1 1 1 1 1 1 1 1 1 0 1 1 1 1 1 1 1 1 1 1 1 1 1 1 1
2 2 3 3 4 4 3 2 2 2 2 2 2 2 2 1 1 1 1 1 1 1 1 1 1 1 1 1 1 1 1 1 1 1 1 1 1 1 1 1 1 1 1
2 2 3 3 3 3 3 2 2 2 2 2 2 2 1 1 2 2 2 1 1 1 1 1 1 1 1 1 1 1 1 1 1 1 2 1 1 1 1 1 1 1 1
2 2 2 3 3 2 2 2 2 2 3 3 2 2 2 2 2 2 2 1 1 1 1 1 2 2 2 2 2 2 2 2 2 2 2 2 2 2 2 2 1 1 1
2 2 2 2 2 2 2 2 2 3 3 3 3 2 2 2 2 2 2 1 1 1 1 1 1 2 2 2 2 2 2 2 2 2 2 2 2 3 3 2 1 1 1
1 2 2 2 2 2 3 3 3 3 3 3 3 3 2 2 2 2 2 1 1 1 1 1 1 1 2 2 2 2 2 2 2 2 2 2 3 3 3 2 2 1 1
1 1 2 2 3 3 4 4 3 3 3 2 3 3 2 2 2 2 2 2 1 1 1 1 1 1 2 2 2 2 2 2 2 2 2 2 3 3 3 3 2 1 1
1 2 2 2 4 5 5 4 5 5 4 2 2 2 2 2 2 2 2 2 2 2 1 1 1 1 2 2 3 2 2 1 2 1 1 2 2 3 3 3 3 2 2
2 2 2 3 4 5 5 4 6 7 5 3 3 3 2 2 2 2 1 1 1 1 1 1 1 1 2 2 3 2 2 2 1 1 1 1 2 2 3 3 3 3 2
2 2 3 4 4 5 4 5 6 6 5 5 5 5 4 3 2 2 1 1 1 1 1 1 1 1 1 2 2 2 2 2 2 1 1 1 2 2 2 3 3 3 2
3 3 3 4 4 4 4 5 5 4 4 7 9 8 6 4 3 2 2 1 1 1 1 1 1 1 1 2 2 2 2 2 2 2 2 2 2 2 2 2 2 3 3
3 3 4 4 4 4 5 5 4 3 5 8 11 10 8 5 4 3 3 2 1 1 1 1 1 1 1 1 1 2 2 2 2 2 2 2 2 1 1 2 2 2 2
3 4 4 5 5 5 5 5 4 4 5 7 9 10 8 5 4 3 3 2 2 2 2 2 1 1 1 1 1 1 2 2 2 2 2 2 2 1 1 1 1 1 1
3 4 5 5 5 5 6 6 5 4 4 6 8 8 6 4 3 3 2 2 2 2 2 2 2 2 2 1 1 1 1 2 2 2 2 2 2 2 2 1 1 1 1
4 5 5 5 5 6 7 7 7 5 4 5 8 8 5 4 3 2 2 2 2 2 2 2 2 2 2 1 1 1 2 3 3 3 3 3 3 3 3 2 2 2 1
5 5 6 6 7 7 7 7 6 4 4 5 7 6 4 3 3 2 2 2 2 1 1 1 1 1 1 1 0 1 2 3 4 4 4 3 3 3 3 3 3 2 2
6 7 8 8 8 8 7 5 4 4 4 4 5 4 3 3 3 3 3 3 2 2 2 2 1 1 1 1 0 1 2 3 3 3 4 3 3 2 2 3 3 3 2
8 9 10 10 9 8 6 5 5 5 4 4 3 3 3 3 3 4 4 4 3 3 3 3 2 2 2 2 1 0 1 1 2 2 3 3 2 1 1 2 3 3 2
9 10 11 11 10 8 6 6 6 6 5 5 4 4 3 4 4 5 5 5 5 4 4 4 3 3 3 2 1 1 0 1 1 1 1 2 1 1 0 1 1 1 1
9 9 9 10 9 8 7 7 7 6 6 6 5 4 4 4 5 6 5 5 5 5 5 5 4 4 4 3 3 2 1 0 1 1 1 1 0 0 0 0 0 0 0
8 8 8 9 9 8 7 7 6 5 5 5 4 4 4 5 6 6 5 4 5 5 6 6 6 6 6 6 5 4 2 1 1 1 1 0 0 0 0 0 0 0 0
8 8 9 9 9 8 8 6 5 4 4 3 3 4 5 5 5 4 4 3 4 4 5 6 7 8 8 7 6 5 3 2 1 1 1 0 0 0 0 1 1 1 1
8 8 8 8 8 8 7 5 4 4 3 3 4 4 5 5 4 3 3 3 3 3 3 4 7 9 8 5 4 4 3 2 1 1 1 1 0 0 0 0 1 2 1
Wind_Speed
6 6 7 7 7 7 7 7 6 6 6 5 5 4 4 4 4 4 5 5 5 5 4 4 3 4 3 3 4 4 4 4 3 3 3 3 4 4 4 4 4 5 5
6 6 7 7 8 7 7 7 7 7 7 5 4 3 2 3 4 4 4 5 6 6 5 5 4 4 3 5 5 5 4 3 3 3 3 3 3 4 4 4 5 4 4
6 7 7 7 7 7 7 6 6 6 7 6 4 3 3 3 4 4 4 6 6 6 5 5 5 4 5 5 5 5 6 4 4 4 3 3 2 1 3 3 3 3 3
5 6 6 6 7 7 7 6 6 7 6 6 5 5 4 4 4 3 3 4 5 6 6 6 5 5 5 4 6 6 5 5 5 4 4 5 3 3 2 3 3 3 3
6 6 5 5 5 6 6 6 6 6 6 6 6 6 5 4 3 4 4 4 4 5 5 5 5 6 6 5 5 4 6 5 5 4 4 4 4 6 4 3 2 2 2
6 6 5 5 5 5 5 6 6 6 6 6 6 6 5 4 4 4 4 4 3 4 5 5 5 6 5 5 5 5 7 6 6 5 4 4 4 4 4 4 4 3 2
7 7 6 6 5 5 5 5 6 6 5 5 5 5 5 4 4 4 4 4 3 3 4 4 4 5 5 5 4 5 5 5 6 5 4 4 4 4 3 4 4 3 2
6 7 6 6 5 5 5 5 5 5 5 5 5 4 4 4 3 3 3 3 3 3 3 4 4 4 4 4 4 4 4 3 4 5 4 4 4 3 4 4 4 4 3
6 6 6 6 6 5 4 4 5 4 4 5 5 4 4 3 2 2 3 2 2 3 3 3 4 3 3 3 3 2 3 3 4 4 4 4 3 3 4 4 4 4 4
7 6 6 5 5 5 4 4 4 4 4 4 4 3 3 3 2 2 2 2 2 2 2 3 3 2 2 2 2 2 3 3 3 2 3 3 3 2 3 3 3 4 4
7 7 6 5 5 5 5 5 5 4 4 3 3 3 3 3 2 2 1 2 1 1 2 2 2 2 2 1 1 2 2 2 2 2 2 3 3 2 2 2 3 2 2
7 7 7 6 5 5 5 5 5 5 4 4 4 3 2 2 2 2 1 1 1 1 1 1 1 1 1 1 1 1 1 1 1 1 2 2 2 2 2 2 2 2 2
7 7 7 6 5 5 5 5 5 5 5 5 4 4 3 3 2 1 1 1 0 0 1 1 1 1 1 1 1 1 1 0 0 0 1 1 1 2 1 2 2 1 1
7 7 6 6 5 5 5 5 5 4 4 5 4 4 3 3 2 2 2 2 1 1 1 1 1 1 1 1 1 1 1 0 0 0 1 1 1 1 1 1 1 1 1
7 7 7 6 6 6 5 5 4 4 4 4 4 3 3 3 3 2 2 2 2 1 1 1 1 1 1 1 0 1 1 1 1 1 1 3 4 5 3 2 1 0 1
6 6 7 7 6 6 5 5 4 4 4 4 3 3 3 3 3 3 2 2 2 2 2 1 1 1 2 4 3 1 1 1 1 1 2 3 3 4 5 5 5 4 1
5 6 6 6 5 5 5 5 5 4 4 3 3 3 3 3 3 3 3 3 3 3 3 2 2 2 4 4 3 2 1 2 2 2 1 1 3 2 3 4 4 4 4
4 5 5 6 5 5 5 5 5 5 4 4 3 3 3 3 3 3 3 3 2 2 2 2 3 3 4 4 3 1 2 3 3 3 2 2 2 2 1 2 3 3 3
4 4 5 6 6 6 6 5 5 4 4 4 3 3 3 3 4 3 4 3 3 2 2 2 3 3 4 4 2 2 2 3 3 3 3 2 2 3 2 1 3 3 4
4 4 5 6 6 5 6 5 5 4 3 3 3 3 3 3 3 3 3 3 3 3 2 3 3 3 3 3 2 4 1 3 3 3 4 6 4 3 2 1 2 3 3
5 5 6 6 5 5 5 5 4 3 2 2 2 3 3 3 3 3 3 3 3 3 3 3 3 3 3 3 2 4 1 1 2 2 3 4 5 4 3 2 2 2 0
6 6 5 6 5 5 4 4 3 3 3 3 2 2 3 3 3 4 4 4 4 4 3 3 2 2 2 2 3 3 4 4 3 2 3 5 5 4 3 3 3 1 3
6 5 6 6 5 4 3 3 3 3 3 3 3 2 2 2 3 3 4 4 3 3 3 3 3 2 2 4 5 4 4 3 2 4 7 5 3 3 4 3 0 2 1
5 5 5 5 5 4 3 3 3 3 3 3 2 2 2 3 3 3 2 2 2 2 2 2 2 3 3 3 3 4 4 4 3 4 5 4 1 1 3 3 2 1 1
4 5 4 5 4 4 3 3 3 3 2 2 2 2 2 3 3 3 2 2 2 1 1 2 2 2 2 2 2 1 2 2 3 3 3 3 3 3 2 2 1 1 2
4 4 4 4 4 3 3 2 2 2 2 2 2 2 2 2 3 4 4 7 5 6 5 5 3 3 5 5 4 3 4 4 2 2 2 2 2 1 1 2 2 2 1
Wind_Direction
166 169 177 179 178 179 185 189 188 183 192 192 195 197 208 217 219 219 212 213 220 212 222 231 190 229 222 228 224 220 209 221 218 229 221 216 215 217 217 225 230 212 212
163 165 175 180 183 182 186 188 190 188 198 193 191 198 208 221 222 227 214 218 216 215 212 220 222 216 228 226 229 228 240 230 213 238 245 231 201 206 214 210 214 226 219
165 165 175 179 180 183 187 191 190 190 198 193 191 194 198 221 217 211 212 218 220 219 228 218 232 227 234 227 229 227 229 236 228 233 253 262 241 195 191 203 212 216 232
158 157 167 176 181 181 182 186 185 188 191 191 200 206 213 215 219 219 213 213 222 224 218 225 228 236 242 237 237 227 234 238 242 227 238 262 297 270 244 211 192 196 216
155 157 161 168 175 175 177 178 181 186 189 194 201 214 222 222 217 218 214 226 217 221 223 227 231 231 239 239 246 239 239 237 244 241 235 236 235 243 254 258 245 223 216
154 154 154 156 163 167 173 175 179 186 189 196 202 215 221 228 228 226 228 223 216 220 222 228 230 232 235 239 241 238 232 243 251 251 245 242 241 239 243 257 252 240 227
153 154 158 159 163 170 172 173 178 185 188 195 204 212 218 224 230 238 232 238 234 226 224 237 232 232 230 235 241 237 244 241 244 245 244 246 251 259 250 254 261 259 237
150 152 156 159 162 167 171 172 173 178 184 191 199 207 214 225 229 237 257 239 242 245 241 232 230 230 232 237 235 243 241 244 242 247 254 257 257 260 249 250 256 257 247
145 150 155 157 160 164 168 174 169 173 184 190 190 195 203 227 240 235 242 249 251 241 234 238 233 228 233 244 242 242 247 243 242 243 240 250 254 257 262 255 248 255 261
148 149 150 156 157 157 155 164 167 172 182 189 195 182 188 196 219 244 254 265 258 256 248 245 235 228 223 226 233 229 227 229 238 248 258 258 261 264 262 265 259 254 260
148 147 145 146 152 154 154 161 159 162 172 180 182 178 180 180 196 222 241 253 267 247 243 246 236 220 216 221 230 239 230 231 236 245 239 247 270 271 261 259 262 258 248
143 143 141 141 145 148 151 152 161 164 168 168 170 168 172 175 194 200 216 241 257 235 215 216 198 208 187 193 212 248 239 244 247 258 259 263 259 256 274 267 257 253 241
149 144 143 145 143 140 141 146 159 161 164 163 165 166 172 173 186 189 162 120 99 131 165 179 174 165 185 175 177 197 211 229 293 281 269 276 278 273 284 277 263 237 205
154 153 152 150 145 140 141 147 153 153 157 158 158 161 169 172 176 162 146 139 120 95 105 148 137 159 175 160 153 160 165 166 72 9 327 320 316 298 267 239 246 233 176
158 159 158 153 153 150 149 148 149 151 153 154 151 152 155 162 165 152 148 139 129 129 124 118 137 158 156 64 23 157 152 160 138 104 75 62 59 43 23 10 18 228 195
161 160 159 158 159 159 156 153 151 150 155 157 151 144 145 146 145 142 140 134 127 124 116 103 96 91 65 54 24 342 138 146 145 129 116 120 109 100 85 62 51 37 38
157 161 160 160 161 159 156 156 153 148 151 147 139 139 139 133 136 139 139 133 125 117 107 98 89 87 78 67 49 7 114 107 85 90 90 85 87 112 116 125 130 86 51
158 158 155 154 155 152 147 145 142 143 144 143 146 153 155 145 139 145 140 137 127 115 103 94 85 84 81 70 53 351 132 103 96 87 85 84 79 54 41 110 106 97 76
144 143 145 140 134 133 134 138 141 145 148 151 156 161 170 168 152 147 146 139 133 123 116 104 98 95 89 66 26 319 127 115 102 85 64 60 83 35 330 141 124 113 109
114 119 121 121 121 126 134 139 141 144 151 156 162 159 167 165 156 146 143 136 140 137 130 105 96 97 97 78 18 317 134 114 109 101 93 64 47 34 353 152 129 120 103
102 111 113 109 110 119 128 131 131 137 137 141 143 144 151 156 150 136 140 143 137 125 115 109 104 98 92 108 54 344 342 117 119 109 99 81 70 54 31 16 58 58 56
97 105 107 104 103 110 118 118 114 113 126 140 145 146 149 153 136 139 142 143 141 142 141 137 129 119 112 88 98 45 21 7 78 79 84 88 85 77 60 69 55 318 273
84 89 96 97 92 89 96 101 93 102 120 130 133 134 137 128 131 143 143 147 157 165 162 165 164 143 128 114 112 104 77 42 63 70 69 84 113 137 121 106 289 265 214
85 90 92 91 84 77 75 78 83 95 109 115 122 129 134 126 124 135 141 147 161 178 177 174 174 148 140 129 134 136 135 135 123 110 116 137 137 108 87 149 190 171 57
81 84 91 92 88 82 79 80 90 109 114 124 140 149 144 135 131 114 78 116 81 34 205 174 171 165 150 103 76 120 129 123 106 135 151 157 164 163 157 152 131 148 166
87 91 93 92 87 85 82 79 90 111 129 142 150 144 139 141 141 133 107 58 64 64 50 33 26 78 83 111 106 91 88 87 116 202 158 166 186 180 173 177 168 176 183